Location: Newark
(5.8900°S, 42.6378°W)
Time: 04:31:52
(UTC+00:00)

deb Explorer IX - Pass Details

Date: 01 November 2019
Orbit: 546 x 1105 km, 38.8° (Epoch: 17 November)

Event Time Altitude Azimuth Distance (km) Brightness Sun altitude
Rises 21:10:46 0° 280° (W) 3,652 ? -7.3°
Reaches altitude 10° 21:13:51 10° 266° (W) 2,787 ? -8.1°
Maximum altitude 21:19:15 24° 214° (SW) 2,032 ? -9.3°
Drops below altitude 10° 21:24:58 10° 163° (SSE) 2,956 ? -10.7°
Sets 21:28:22 0° 150° (SSE) 3,923 ? -11.5°
